Regional Weather Roundup
Issued by NWS Sioux Falls, SD

Home | Current Version | Previous Version | Graphics & Text | Print | Product List | Glossary Off
Versions: 1 2 3 4 5 6 7 8 9 10 11 12 13 14 15 16 17 18 19 20 21 22 23 24 25 26 27 28 29 30 31 32 33 34 35 36 37 38 39 40 41 42 43 44 45 46 47 48 49 50

000
ASUS43 KFSD 190502
RWRFSD

WEATHER ROUNDUP FOR SE SOUTH DAKOTA/SW MINNESOTA/NW IOWA
NATIONAL WEATHER SERVICE SIOUX FALLS SD
1200 AM CDT SAT APR 19 2014

NOTE: "FAIR" INDICATES FEW OR NO CLOUDS BELOW 12,000 FEET WITH NO
SIGNIFICANT WEATHER AND OR OBSTRUCTIONS TO VISIBILITY.


SDZ038>040-050-052>070-190600-
SOUTHEAST SOUTH DAKOTA

CITY           SKY/WX    TMP DP  RH WIND       PRES   REMARKS
CHAMBERLAIN      N/A     66  42  41 S31G38    29.70F
HURON          MOCLDY    60  40  47 S21G33    29.75F
MADISON        FAIR      54  37  54 S22G32    29.88F
MITCHELL         N/A     61  42  49 S26G35    29.81F
SIOUX FALLS    CLOUDY    56  38  50 S21G28    29.93F
WINNER         FAIR      68  42  38 S31G45    29.72R
YANKTON        MOCLDY    57  39  51 S24G32    29.92F
$$

MNZ071-072-080-081-089-090-097-098-190600-
SOUTHWEST MINNESOTA

CITY           SKY/WX    TMP DP  RH WIND       PRES   REMARKS
FAIRMONT       CLOUDY    48  28  46 SE21      30.11S
JACKSON        CLOUDY    50  30  46 SE21G29   30.07S
LUVERNE        CLOUDY    54  36  50 S16G28    29.99S
MARSHALL       CLOUDY    50  34  53 SE18G29   29.98F
MONTEVIDEO     CLOUDY    45  36  70 S21       30.01S
PIPESTONE      CLOUDY    52  36  54 S22G28    29.94F
REDWOOD FALLS  CLOUDY    48  34  58 SE17G25   30.05F
TRACY          CLOUDY    50  34  55 SE16G23   30.01F
WINDOM         CLOUDY    50  30  46 SE20G25   30.05S
WORTHINGTON    CLOUDY    52  30  43 SE17G25   30.04S
$$

IAZ001>003-012>014-020>022-031-032-NEZ013-014-SDZ071-190600-
NORTHWEST IOWA

CITY           SKY/WX    TMP DP  RH WIND       PRES   REMARKS
CHEROKEE       CLOUDY    53  36  51 S18       30.05S
DENISON        CLOUDY    54  36  50 S20G26    30.08S
ESTHERVILLE    CLOUDY    49  32  52 SE23G30   30.07F
SHELDON        CLOUDY    54  36  50 SE21G30   30.01S
SIOUX CITY     MOCLDY    57  40  52 S18       30.01F
SPENCER        CLOUDY    51  34  52 SE18      30.06F
STORM LAKE     CLOUDY    52  36  54 S18G26    30.08S
$$

ABBREVIATIONS USED IN REMARKS
   TC - TEMPERATURE IN CELSIUS
  WCI - WIND CHILL INDEX
   HX - HEAT INDEX
  VSB - VISIBILITY




USA.gov is the U.S. government's official web portal to all federal, state and local government web resources and services.